NI4CE-10 Weather Reports


time (UTC)temp
F
wind
direction
speed
knots
gust
knots
rain 1hr
in
rain 24hr
in
rain mn
in
humidity
%
barometer
mb
20260506141329 81 182 7.8 7.8 0.00 0.00 0.00 100 1019.6
20260506141042 81 182 7.8 7.8 0.00 0.00 0.00 100 1019.6
20260506140542 82 157 3.5 7.8 0.00 0.00 0.00 100 1019.6
20260506140042 81 191 5.2 8.7 0.00 0.00 0.00 100 1019.6
20260506135542 81 171 4.3 8.7 0.00 0.00 0.00 100 1019.5
20260506135042 80 194 6.1 8.7 0.00 0.00 0.00 100 1019.6
20260506134542 79 174 4.3 9.6 0.00 0.00 0.00 100 1019.5
20260506134216 79 161 4.3 9.6 0.00 0.00 0.00 100 1019.5
20260506134042 79 161 4.3 9.6 0.00 0.00 0.00 100 1019.5
20260506133956 78 165 8.7 9.6 0.00 0.00 0.00 100 1019.4
20260506133542 78 184 5.2 10.4 0.00 0.00 0.00 100 1019.4
20260506133042 78 165 8.7 9.6 0.00 0.00 0.00 100 1019.4
20260506132700 79 91 6.1 8.7 0.00 0.00 0.00 100 1019.4
20260506132542 79 91 6.1 8.7 0.00 0.00 0.00 100 1019.4
20260506132127 78 115 4.3 10.4 0.00 0.00 0.00 100 1019.4
20260506132042 78 115 4.3 10.4 0.00 0.00 0.00 100 1019.4
20260506131713 78 150 4.3 7.8 0.00 0.00 0.00 100 1019.3
20260506131614 78 150 4.3 7.8 0.00 0.00 0.00 100 1019.3
20260506131542 78 150 4.3 7.8 0.00 0.00 0.00 100 1019.3
20260506131214 77 130 3.5 8.7 0.00 0.00 0.00 100 1019.4
20260506131121 77 130 3.5 8.7 0.00 0.00 0.00 100 1019.4
20260506131042 77 130 3.5 8.7 0.00 0.00 0.00 100 1019.4
20260506130708 77 156 6.1 8.7 0.00 0.00 0.00 100 1019.3
20260506130542 77 156 6.1 8.7 0.00 0.00 0.00 100 1019.3
20260506130042 78 182 2.6 6.1 0.00 0.00 0.00 100 1019.3
20260506125542 77 188 1.7 6.1 0.00 0.00 0.00 100 1019.2
20260506125223 76 132 4.3 6.1 0.00 0.00 0.00 100 1019.2
20260506125042 76 132 4.3 6.1 0.00 0.00 0.00 100 1019.2
20260506124923 73 156 2.6 4.3 0.00 0.00 0.00 100 1019.1
20260506124542 75 132 3.5 6.1 0.00 0.00 0.00 100 1019.1
20260506124133 74 147 6.1 6.1 0.00 0.00 0.00 100 1019.1
20260506124042 74 147 6.1 6.1 0.00 0.00 0.00 100 1019.1
20260506123619 73 125 1.7 6.1 0.00 0.00 0.00 100 1019.1
20260506123542 73 125 1.7 6.1 0.00 0.00 0.00 100 1019.1
20260506123131 73 156 2.6 4.3 0.00 0.00 0.00 100 1019.1
20260506123042 73 156 2.6 4.3 0.00 0.00 0.00 100 1019.1
20260506122642 71 150 1.7 4.3 0.00 0.00 0.00 100 1019.1
20260506122542 71 150 1.7 4.3 0.00 0.00 0.00 100 1019.1
20260506122515 69 77 0.0 0.0 0.00 0.00 0.00 100 1018.9
20260506122042 71 142 0.9 4.3 0.00 0.00 0.00 100 1019.0
20260506121542 70 77 0.0 0.0 0.00 0.00 0.00 100 1019.0
20260506121042 70 77 0.0 0.0 0.00 0.00 0.00 100 1018.9
20260506120626 69 77 0.0 0.0 0.00 0.00 0.00 100 1018.9
20260506120542 69 77 0.0 0.0 0.00 0.00 0.00 100 1018.9
20260506120131 69 77 0.0 0.0 0.00 0.00 0.00 100 1018.9
20260506120042 69 77 0.0 0.0 0.00 0.00 0.00 100 1018.9
20260506115542 69 77 0.0 0.0 0.00 0.00 0.00 100 1018.9
20260506115042 68 77 0.0 0.0 0.00 0.00 0.00 100 1018.8
20260506114746 68 77 0.0 0.0 0.00 0.00 0.00 100 1018.7
20260506114710 68 77 0.0 0.0 0.00 0.00 0.00 100 1018.7
20260506114542 68 77 0.0 0.0 0.00 0.00 0.00 100 1018.7
20260506114042 66 77 0.0 0.0 0.00 0.00 0.00 100 1018.7
20260506113542 65 77 0.0 0.0 0.00 0.00 0.00 100 1018.8
20260506113042 64 77 0.0 0.0 0.00 0.00 0.00 100 1018.7
20260506112542 64 77 0.0 0.0 0.00 0.00 0.00 100 1018.6
20260506112042 63 77 0.0 0.0 0.00 0.00 0.00 100 1018.5
20260506111847 63 77 0.0 0.0 0.00 0.00 0.00 100 1018.5
20260506111648 63 77 0.0 0.0 0.00 0.00 0.00 100 1018.5
20260506111542 63 77 0.0 0.0 0.00 0.00 0.00 100 1018.5
20260506111405 62 77 0.0 0.0 0.00 0.00 0.00 100 1018.1
20260506111042 63 77 0.0 0.0 0.00 0.00 0.00 100 1018.4
20260506110542 63 77 0.0 0.0 0.00 0.00 0.00 100 1018.3
20260506110042 62 77 0.0 0.0 0.00 0.00 0.00 100 1018.2
20260506105542 62 77 0.0 0.0 0.00 0.00 0.00 100 1018.2
20260506105042 62 77 0.0 0.0 0.00 0.00 0.00 100 1018.2
20260506104542 62 77 0.0 0.0 0.00 0.00 0.00 100 1018.1
20260506104358 62 77 0.0 0.0 0.00 0.00 0.00 100 1017.8
20260506104042 63 77 0.0 0.0 0.00 0.00 0.00 100 1018.1
20260506103543 63 77 0.0 0.0 0.00 0.00 0.00 100 1018.0
20260506103043 62 77 0.0 0.0 0.00 0.00 0.00 100 1017.8
20260506102543 62 77 0.0 0.0 0.00 0.00 0.00 100 1018.0
20260506102043 62 77 0.0 0.0 0.00 0.00 0.00 100 1018.0
20260506101543 62 77 0.0 0.0 0.00 0.00 0.00 100 1017.9
20260506101043 62 77 0.0 0.0 0.00 0.00 0.00 100 1017.9
20260506100543 62 77 0.0 0.0 0.00 0.00 0.00 100 1017.9
20260506100043 62 77 0.0 0.0 0.00 0.00 0.00 100 1017.8
20260506095543 62 77 0.0 0.0 0.00 0.00 0.00 100 1017.9
20260506095043 62 77 0.0 0.0 0.00 0.00 0.00 100 1017.9
20260506094543 62 77 0.0 0.0 0.00 0.00 0.00 100 1018.0
20260506094043 62 77 0.0 0.0 0.00 0.00 0.00 100 1017.8
20260506093759 62 77 0.0 0.0 0.00 0.00 0.00 100 1017.8
20260506093543 62 77 0.0 0.0 0.00 0.00 0.00 100 1017.8
20260506093043 62 77 0.0 0.0 0.00 0.00 0.00 100 1017.9
20260506092543 63 77 0.0 0.0 0.00 0.00 0.00 100 1017.9
20260506092043 62 77 0.0 0.0 0.00 0.00 0.00 100 1017.9
20260506091615 63 77 0.0 0.0 0.00 0.00 0.00 100 1018.0
20260506091543 63 77 0.0 0.0 0.00 0.00 0.00 100 1018.0
20260506091338 63 77 0.0 0.0 0.00 0.00 0.00 100 1018.0
20260506091043 63 77 0.0 0.0 0.00 0.00 0.00 100 1018.0
20260506090731 63 77 0.0 0.0 0.00 0.00 0.00 100 1018.0
20260506090543 63 77 0.0 0.0 0.00 0.00 0.00 100 1018.0
20260506090043 63 77 0.0 0.0 0.00 0.00 0.00 100 1018.0
20260506085636 63 77 0.0 0.0 0.00 0.00 0.00 100 1018.1
20260506085543 63 77 0.0 0.0 0.00 0.00 0.00 100 1018.1
20260506085242 63 77 0.0 0.0 0.00 0.00 0.00 100 1018.1
20260506085043 63 77 0.0 0.0 0.00 0.00 0.00 100 1018.1
20260506084543 63 77 0.0 0.0 0.00 0.00 0.00 100 1018.1
20260506084504 64 77 0.0 0.0 0.00 0.00 0.00 100 1018.1
20260506084043 64 77 0.0 0.0 0.00 0.00 0.00 100 1018.0
20260506083802 64 77 0.0 0.0 0.00 0.00 0.00 100 1018.1
20260506083643 64 77 0.0 0.0 0.00 0.00 0.00 100 1018.1
20260506083543 64 77 0.0 0.0 0.00 0.00 0.00 100 1018.1
20260506083132 64 77 0.0 0.0 0.00 0.00 0.00 100 1018.0
20260506083043 64 77 0.0 0.0 0.00 0.00 0.00 100 1018.0
20260506082718 64 77 0.0 0.0 0.00 0.00 0.00 100 1018.0
20260506082543 64 77 0.0 0.0 0.00 0.00 0.00 100 1018.0
20260506082043 64 77 0.0 0.0 0.00 0.00 0.00 100 1018.0
20260506081719 64 77 0.0 0.0 0.00 0.00 0.00 100 1017.9
20260506081709 64 77 0.0 0.0 0.00 0.00 0.00 100 1017.9
20260506081543 64 77 0.0 0.0 0.00 0.00 0.00 100 1017.9
20260506081043 64 77 0.0 0.0 0.00 0.00 0.00 100 1017.9
20260506080543 64 77 0.0 0.0 0.00 0.00 0.00 100 1018.0
20260506080126 65 85 0.0 0.9 0.00 0.00 0.00 100 1017.7
20260506073043 64 57 0.0 0.0 0.00 0.00 0.00 100 1018.1
20260506072943 65 57 0.0 0.0 0.00 0.00 0.00 100 1018.1
20260506072543 64 57 0.0 0.0 0.00 0.00 0.00 100 1018.0
20260506072043 65 57 0.0 0.0 0.00 0.00 0.00 100 1018.1
20260506071543 65 57 0.0 0.0 0.00 0.00 0.00 100 1018.1
20260506071201 65 57 0.0 0.0 0.00 0.00 0.00 100 1018.2
20260506071043 64 57 0.0 0.0 0.00 0.00 0.00 100 1018.1
20260506070543 65 57 0.0 0.0 0.00 0.00 0.00 100 1018.2
20260506062044 66 57 0.0 0.0 0.00 0.00 0.00 100 1018.4
20260506061630 66 57 0.0 0.0 0.00 0.00 0.00 100 1018.4
20260506061621 66 57 0.0 0.0 0.00 0.00 0.00 100 1018.5
20260506061544 66 57 0.0 0.0 0.00 0.00 0.00 100 1018.5
20260506061044 66 57 0.0 0.0 0.00 0.00 0.00 100 1018.4
20260506061004 66 57 0.0 0.0 0.00 0.00 0.00 100 1018.5
20260506060544 66 57 0.0 0.0 0.00 0.00 0.00 100 1018.5
20260506051044 68 67 0.0 0.9 0.00 0.00 0.00 100 1019.1
20260506050544 68 78 0.0 1.7 0.00 0.00 0.00 100 1019.1
20260506050253 69 91 0.0 0.0 0.00 0.00 0.00 100 1019.1
20260506045044 69 57 0.0 0.9 0.00 0.00 0.00 100 1019.2
20260506045037 69 97 0.9 0.9 0.00 0.00 0.00 100 1019.1
20260506044544 69 97 0.9 0.9 0.00 0.00 0.00 100 1019.1
20260506044252 70 90 0.9 1.7 0.00 0.00 0.00 100 1019.1
20260506044044 70 90 0.9 1.7 0.00 0.00 0.00 100 1019.1
20260506043717 71 87 0.9 2.6 0.00 0.00 0.00 100 1019.1
20260506043544 71 87 0.9 2.6 0.00 0.00 0.00 100 1019.1
20260506043133 71 132 1.7 2.6 0.00 0.00 0.00 100 1019.0
20260506043044 71 116 0.9 2.6 0.00 0.00 0.00 100 1019.1
20260506042544 71 132 1.7 2.6 0.00 0.00 0.00 100 1019.0
20260506042331 71 92 1.7 3.5 0.00 0.00 0.00 100 1019.0
20260506042044 71 139 2.6 3.5 0.00 0.00 0.00 100 1018.9
20260506041544 71 92 1.7 3.5 0.00 0.00 0.00 100 1019.0
20260506041139 71 119 2.6 4.3 0.00 0.00 0.00 100 1019.0
20260506041044 71 119 2.6 4.3 0.00 0.00 0.00 100 1019.0
20260506040716 71 102 1.7 2.6 0.00 0.00 0.00 100 1019.0
20260506040544 71 102 1.7 2.6 0.00 0.00 0.00 100 1019.0
20260506040204 71 123 0.9 2.6 0.00 0.00 0.00 100 1018.9
20260506040044 71 123 0.9 2.6 0.00 0.00 0.00 100 1018.9
20260506035804 72 95 1.7 3.5 0.00 0.00 0.00 100 1019.1
20260506035544 72 91 0.9 2.6 0.00 0.00 0.00 100 1019.0
20260506035044 72 95 1.7 3.5 0.00 0.00 0.00 100 1019.1
20260506034544 72 71 1.7 2.6 0.00 0.00 0.00 100 1019.1
20260506034044 73 111 1.7 2.6 0.00 0.00 0.00 100 1019.2
20260506033705 73 113 1.7 2.6 0.00 0.00 0.00 100 1019.1
20260506033544 73 80 2.6 2.6 0.00 0.00 0.00 100 1019.2
20260506033044 73 113 1.7 2.6 0.00 0.00 0.00 100 1019.1
20260506033008 73 149 2.6 4.3 0.00 0.00 0.00 100 1019.2
20260506032544 73 149 2.6 4.3 0.00 0.00 0.00 100 1019.2
20260506032234 74 92 2.6 4.3 0.00 0.00 0.00 100 1019.1
20260506032044 74 150 1.7 4.3 0.00 0.00 0.00 100 1019.1
20260506031544 74 92 2.6 4.3 0.00 0.00 0.00 100 1019.1
20260506031210 74 104 1.7 4.3 0.00 0.00 0.00 100 1019.1
20260506031044 74 104 1.7 4.3 0.00 0.00 0.00 100 1019.1
20260506030702 74 95 3.5 4.3 0.00 0.00 0.00 100 1019.0
20260506030544 74 95 3.5 4.3 0.00 0.00 0.00 100 1019.0
20260506030420 75 125 3.5 4.3 0.00 0.00 0.00 100 1019.0
20260506030044 75 125 3.5 4.3 0.00 0.00 0.00 100 1019.0
20260506025548 75 59 3.5 5.2 0.00 0.00 0.00 100 1019.0
20260506025544 75 129 3.5 5.2 0.00 0.00 0.00 100 1019.0
20260506025134 75 120 1.7 5.2 0.00 0.00 0.00 100 1018.9
20260506025044 75 59 3.5 5.2 0.00 0.00 0.00 100 1019.0
20260506024545 75 120 1.7 5.2 0.00 0.00 0.00 100 1018.9
20260506024531 75 120 2.6 6.1 0.00 0.00 0.00 100 1018.9
20260506024045 75 120 2.6 6.1 0.00 0.00 0.00 100 1018.9
20260506024031 75 46 0.9 7.8 0.00 0.00 0.00 100 1018.8
20260506023545 75 46 0.9 7.8 0.00 0.00 0.00 100 1018.8
20260506023045 75 82 1.7 3.5 0.00 0.00 0.00 100 1018.8
20260506022631 75 109 1.7 7.0 0.00 0.00 0.00 100 1018.7
20260506022545 75 137 3.5 4.3 0.00 0.00 0.00 100 1018.7
20260506022045 75 109 1.7 7.0 0.00 0.00 0.00 100 1018.7
20260506021740 74 106 5.2 6.1 0.00 0.00 0.00 100 1018.6
20260506021545 74 106 5.2 6.1 0.00 0.00 0.00 100 1018.6
20260506021045 74 2 0.0 2.6 0.00 0.00 0.00 100 1018.6
20260506021037 74 97 2.6 5.2 0.00 0.00 0.00 100 1018.7
20260506020629 74 97 2.6 5.2 0.00 0.00 0.00 100 1018.7
20260506020545 74 97 2.6 5.2 0.00 0.00 0.00 100 1018.7
20260506020045 73 130 3.5 5.2 0.00 0.00 0.00 100 1018.6
20260506015933 74 19 0.0 3.5 0.00 0.00 0.00 100 1018.5
20260506015545 74 19 0.0 3.5 0.00 0.00 0.00 100 1018.5
20260506015503 73 26 0.9 1.7 0.00 0.00 0.00 100 1018.5
20260506015045 73 26 0.9 1.7 0.00 0.00 0.00 100 1018.5
20260506014545 74 98 1.7 2.6 0.00 0.00 0.00 100 1018.4
20260506014533 74 109 1.7 2.6 0.00 0.00 0.00 100 1018.3
20260506014045 74 109 1.7 2.6 0.00 0.00 0.00 100 1018.3
20260506013828 75 19 0.9 4.3 0.00 0.00 0.00 100 1018.3
20260506013545 75 19 0.9 4.3 0.00 0.00 0.00 100 1018.3
20260506013504 75 333 2.6 7.0 0.00 0.00 0.00 100 1018.1
20260506013413 75 358 3.5 4.3 0.00 0.00 0.00 100 1018.3
20260506013141 75 358 3.5 4.3 0.00 0.00 0.00 100 1018.3
20260506013045 75 358 3.5 4.3 0.00 0.00 0.00 100 1018.3
20260506013017 75 333 2.6 7.0 0.00 0.00 0.00 100 1018.1
20260506012545 75 333 2.6 7.0 0.00 0.00 0.00 100 1018.1
20260506012045 75 330 4.3 5.2 0.00 0.00 0.00 100 1018.2
20260506012042 75 350 3.5 3.5 0.00 0.00 0.00 100 1018.1
20260506011758 75 358 2.6 3.5 0.00 0.00 0.00 100 1018.2
20260506011551 75 350 3.5 3.5 0.00 0.00 0.00 100 1018.1
20260506011545 75 358 2.6 3.5 0.00 0.00 0.00 100 1018.2
20260506011045 75 350 3.5 3.5 0.00 0.00 0.00 100 1018.1
20260506010800 75 4 0.0 0.0 0.00 0.00 0.00 100 1018.0
20260506010545 75 4 0.0 0.0 0.00 0.00 0.00 100 1018.0
20260506010045 76 4 0.0 0.9 0.00 0.00 0.00 100 1018.0
20260506005900 76 333 0.0 1.7 0.00 0.00 0.00 100 1017.9
20260506005747 76 333 0.0 1.7 0.00 0.00 0.00 100 1017.9
20260506005545 76 333 0.0 1.7 0.00 0.00 0.00 100 1017.9
20260506005530 76 14 0.0 1.7 0.00 0.00 0.00 100 1017.8
20260506005239 77 26 0.0 3.5 0.00 0.00 0.00 100 1017.6
20260506005045 76 14 0.0 1.7 0.00 0.00 0.00 100 1017.8
20260506005032 76 2 0.0 0.0 0.00 0.00 0.00 100 1017.9
20260506004545 76 2 0.0 0.0 0.00 0.00 0.00 100 1017.9
20260506004510 77 2 0.0 0.0 0.00 0.00 0.00 100 1017.8
20260506004045 77 2 0.0 0.0 0.00 0.00 0.00 100 1017.8
20260506003816 77 2 0.0 0.0 0.00 0.00 0.00 100 1017.7
20260506003545 77 2 0.0 0.0 0.00 0.00 0.00 100 1017.7
20260506003045 77 2 0.0 1.7 0.00 0.00 0.00 100 1017.7
20260506002940 77 26 0.0 3.5 0.00 0.00 0.00 100 1017.6
20260506002545 77 26 0.0 3.5 0.00 0.00 0.00 100 1017.6
20260506002404 77 1 0.0 0.9 0.00 0.00 0.00 100 1017.6
20260506002045 77 1 0.0 0.9 0.00 0.00 0.00 100 1017.6
20260506001824 78 315 0.9 5.2 0.00 0.00 0.00 100 1017.3
20260506001545 78 337 0.0 3.5 0.00 0.00 0.00 100 1017.4
20260506001045 78 315 0.9 5.2 0.00 0.00 0.00 100 1017.3
20260506000720 79 7 3.5 6.1 0.00 0.00 0.00 100 1017.0
20260506000545 78 337 2.6 4.3 0.00 0.00 0.00 100 1017.2
20260506000045 79 319 1.7 6.1 0.00 0.00 0.00 100 1017.0
20260505235748 79 336 1.7 6.1 0.00 0.00 0.00 100 1017.0
20260505235545 79 7 3.5 6.1 0.00 0.00 0.00 100 1017.0
20260505235310 79 336 1.7 6.1 0.00 0.00 0.00 100 1017.0
20260505235045 79 336 1.7 6.1 0.00 0.00 0.00 100 1017.0
20260505234923 80 358 2.6 6.1 0.00 0.00 0.00 100 1016.9
20260505234812 80 358 2.6 6.1 0.00 0.00 0.00 100 1016.9
20260505234545 80 358 2.6 6.1 0.00 0.00 0.00 100 1016.9
20260505234529 80 350 3.5 7.8 0.00 0.00 0.00 100 1016.7
20260505234457 80 350 3.5 7.8 0.00 0.00 0.00 100 1016.7
20260505234045 80 350 3.5 7.8 0.00 0.00 0.00 100 1016.7
20260505233952 81 2 0.0 6.1 0.00 0.00 0.00 100 1016.7
20260505233545 81 2 0.0 6.1 0.00 0.00 0.00 100 1016.7
20260505233457 82 1 0.9 6.1 0.00 0.00 0.00 100 1016.8
20260505233329 82 1 0.9 6.1 0.00 0.00 0.00 100 1016.8
20260505233045 82 1 0.9 6.1 0.00 0.00 0.00 100 1016.8
20260505233026 82 7 3.5 9.6 0.00 0.00 0.00 100 1016.7
20260505232838 82 7 3.5 9.6 0.00 0.00 0.00 100 1016.7
20260505232545 82 7 3.5 9.6 0.00 0.00 0.00 100 1016.7
20260505232317 83 337 5.2 9.6 0.00 0.00 0.00 100 1016.7
20260505232045 83 337 5.2 9.6 0.00 0.00 0.00 100 1016.7
20260505231933 83 307 7.0 10.4 0.00 0.00 0.00 100 1016.6
20260505231858 83 307 7.0 10.4 0.00 0.00 0.00 100 1016.6
20260505231545 83 307 7.0 10.4 0.00 0.00 0.00 100 1016.6
20260505231120 83 14 3.5 9.6 0.00 0.00 0.00 100 1016.6
20260505231045 83 14 3.5 9.6 0.00 0.00 0.00 100 1016.6
20260505230817 83 347 4.3 7.8 0.00 0.00 0.00 100 1016.6
20260505230545 83 347 4.3 7.8 0.00 0.00 0.00 100 1016.6
20260505230228 83 284 2.6 8.7 0.00 0.00 0.00 100 1016.6
20260505230045 83 284 2.6 8.7 0.00 0.00 0.00 100 1016.6
20260505230035 83 289 2.6 7.8 0.00 0.00 0.00 100 1016.6
20260505225728 83 289 2.6 7.8 0.00 0.00 0.00 100 1016.6
20260505225545 83 289 2.6 7.8 0.00 0.00 0.00 100 1016.6
20260505225045 83 271 2.6 7.0 0.00 0.00 0.00 100 1016.5
20260505224935 83 264 2.6 8.7 0.00 0.00 0.00 100 1016.6
20260505224546 83 264 2.6 8.7 0.00 0.00 0.00 100 1016.6
20260505224046 83 257 3.5 9.6 0.00 0.00 0.00 100 1016.5
20260505224018 84 286 1.7 7.8 0.00 0.00 0.00 100 1016.5
20260505223546 84 286 1.7 7.8 0.00 0.00 0.00 100 1016.5
20260505223046 84 312 4.3 9.6 0.00 0.00 0.00 100 1016.5
20260505222814 83 293 6.1 9.6 0.00 0.00 0.00 100 1016.4
20260505222546 83 293 6.1 9.6 0.00 0.00 0.00 100 1016.4
20260505222520 84 278 5.2 9.6 0.00 0.00 0.00 100 1016.3
20260505222046 84 278 5.2 9.6 0.00 0.00 0.00 100 1016.3
20260505221810 84 323 2.6 11.3 0.00 0.00 0.00 100 1016.3
20260505221546 84 323 2.6 11.3 0.00 0.00 0.00 100 1016.3
20260505221301 84 284 3.5 9.6 0.00 0.00 0.00 100 1016.4
20260505221046 84 284 3.5 9.6 0.00 0.00 0.00 100 1016.4
20260505220546 85 278 7.8 9.6 0.00 0.00 0.00 100 1016.4
20260505220046 85 289 6.1 10.4 0.00 0.00 0.00 100 1016.3
20260505215812 86 267 5.2 9.6 0.00 0.00 0.00 100 1016.3
20260505215546 86 267 5.2 9.6 0.00 0.00 0.00 100 1016.3
20260505215046 86 300 5.2 10.4 0.00 0.00 0.00 100 1016.3
20260505214744 87 23 1.7 6.1 0.00 0.00 0.00 100 1016.1
20260505214546 87 282 2.6 11.3 0.00 0.00 0.00 100 1016.2
20260505214046 87 264 5.2 7.8 0.00 0.00 0.00 100 1016.2
20260505213642 88 309 5.2 8.7 0.00 0.00 0.00 100 1016.1
20260505213546 88 309 5.2 8.7 0.00 0.00 0.00 100 1016.1
20260505213046 87 23 1.7 6.1 0.00 0.00 0.00 100 1016.1
20260505213002 88 85 2.6 4.3 0.00 0.00 0.00 100 1016.1
20260505212546 87 262 3.5 6.1 0.00 0.00 0.00 100 1016.0
20260505212311 88 310 0.0 4.3 0.00 0.00 0.00 100 1016.1
20260505212046 88 310 0.0 4.3 0.00 0.00 0.00 100 1016.1
20260505211546 89 146 0.0 4.3 0.00 0.00 0.00 100 1016.1
20260505211046 88 85 2.6 4.3 0.00 0.00 0.00 100 1016.1
20260505210921 92 37 0.0 0.0 0.00 0.00 0.00 100 1016.1
20260505210546 92 37 0.0 0.0 0.00 0.00 0.00 100 1016.1
20260505210046 91 37 0.0 2.6 0.00 0.00 0.00 100 1016.1
20260505205952 91 11 0.0 4.3 0.00 0.00 0.00 100 1016.0
20260505205546 91 11 0.0 4.3 0.00 0.00 0.00 100 1016.0
20260505205110 90 165 1.7 2.6 0.00 0.00 0.00 100 1016.1
20260505205046 90 316 1.7 2.6 0.00 0.00 0.00 100 1016.1
20260505204546 89 74 1.7 5.2 0.00 0.00 0.00 100 1016.1
20260505204137 90 165 1.7 2.6 0.00 0.00 0.00 100 1016.1
20260505204046 90 165 1.7 2.6 0.00 0.00 0.00 100 1016.1
20260505203804 90 7 0.0 1.7 0.00 0.00 0.00 100 1016.2
20260505203546 90 7 0.0 1.7 0.00 0.00 0.00 100 1016.2
20260505203217 90 40 0.0 1.7 0.00 0.00 0.00 100 1016.2
20260505203046 90 40 0.0 1.7 0.00 0.00 0.00 100 1016.2
20260505202546 88 43 0.0 6.1 0.00 0.00 0.00 100 1016.3
20260505202204 89 116 3.5 5.2 0.00 0.00 0.00 100 1016.4
20260505202132 89 116 3.5 5.2 0.00 0.00 0.00 100 1016.4
20260505202046 89 116 3.5 5.2 0.00 0.00 0.00 100 1016.4
20260505201640 88 88 3.5 5.2 0.00 0.00 0.00 100 1016.4
20260505201546 88 88 3.5 5.2 0.00 0.00 0.00 100 1016.4
20260505201147 88 99 0.0 6.1 0.00 0.00 0.00 100 1016.5
20260505201046 88 99 0.0 6.1 0.00 0.00 0.00 100 1016.5
20260505200546 89 164 5.2 6.1 0.00 0.00 0.00 100 1016.5
20260505200046 89 82 0.0 7.8 0.00 0.00 0.00 100 1016.5
20260505195959 88 122 3.5 7.0 0.00 0.00 0.00 100 1016.6
20260505195710 89 158 5.2 6.1 0.00 0.00 0.00 100 1016.5
20260505195546 89 158 5.2 6.1 0.00 0.00 0.00 100 1016.5
20260505195207 89 272 0.0 7.0 0.00 0.00 0.00 100 1016.4
20260505195118 89 272 0.0 7.0 0.00 0.00 0.00 100 1016.4
20260505195046 89 272 0.0 7.0 0.00 0.00 0.00 100 1016.4
20260505194546 88 122 3.5 7.0 0.00 0.00 0.00 100 1016.6
20260505194151 88 154 3.5 6.1 0.00 0.00 0.00 100 1016.6
20260505194046 88 154 3.5 6.1 0.00 0.00 0.00 100 1016.6
20260505193651 89 102 1.7 5.2 0.00 0.00 0.00 100 1016.6
20260505193546 89 102 1.7 5.2 0.00 0.00 0.00 100 1016.6
20260505193156 89 46 0.0 7.0 0.00 0.00 0.00 100 1016.6
20260505193136 89 22 4.3 7.8 0.00 0.00 0.00 100 1016.6
20260505193046 89 46 0.0 7.0 0.00 0.00 0.00 100 1016.6
20260505192546 89 22 4.3 7.8 0.00 0.00 0.00 100 1016.6
20260505192506 88 78 0.0 7.0 0.00 0.00 0.00 100 1016.7
20260505192144 89 216 0.0 5.2 0.00 0.00 0.00 100 1016.6
20260505192046 89 216 0.0 5.2 0.00 0.00 0.00 100 1016.6
20260505191642 88 78 0.0 7.0 0.00 0.00 0.00 100 1016.7
20260505191546 88 78 0.0 7.0 0.00 0.00 0.00 100 1016.7
20260505191314 88 74 2.6 7.0 0.00 0.00 0.00 100 1016.9
20260505191202 88 74 2.6 7.0 0.00 0.00 0.00 100 1016.9
20260505191046 88 74 2.6 7.0 0.00 0.00 0.00 100 1016.9
20260505190715 88 227 0.9 7.0 0.00 0.00 0.00 100 1016.9
20260505190546 88 227 0.9 7.0 0.00 0.00 0.00 100 1016.9
20260505190207 88 150 0.0 2.6 0.00 0.00 0.00 100 1016.9
20260505190046 88 150 0.0 2.6 0.00 0.00 0.00 100 1016.9
20260505185819 88 149 2.6 7.8 0.00 0.00 0.00 100 1016.9
20260505185547 88 149 2.6 7.8 0.00 0.00 0.00 100 1016.9
20260505185142 90 336 0.0 6.1 0.00 0.00 0.00 100 1016.9
20260505185047 90 336 0.0 6.1 0.00 0.00 0.00 100 1016.9
20260505184715 87 25 0.9 7.0 0.00 0.00 0.00 100 1017.0
20260505184547 87 25 0.9 7.0 0.00 0.00 0.00 100 1017.0
20260505184047 88 88 3.5 7.0 0.00 0.00 0.00 100 1017.1
20260505183651 88 129 0.0 7.0 0.00 0.00 0.00 100 1017.1
20260505183628 89 104 4.3 6.1 0.00 0.00 0.00 100 1017.1
20260505183547 88 129 0.0 7.0 0.00 0.00 0.00 100 1017.1
20260505183215 89 104 4.3 6.1 0.00 0.00 0.00 100 1017.1
20260505183047 89 104 4.3 6.1 0.00 0.00 0.00 100 1017.1
20260505182717 87 123 3.5 7.8 0.00 0.00 0.00 100 1017.2
20260505182547 87 123 3.5 7.8 0.00 0.00 0.00 100 1017.2
20260505182215 86 91 4.3 7.8 0.00 0.00 0.00 100 1017.4
20260505182047 86 91 4.3 7.8 0.00 0.00 0.00 100 1017.4
20260505181643 86 92 1.7 7.0 0.00 0.00 0.00 100 1017.5
20260505181547 86 92 1.7 7.0 0.00 0.00 0.00 100 1017.5
20260505181239 89 33 0.0 4.3 0.00 0.00 0.00 100 1017.5
20260505181047 89 33 0.0 4.3 0.00 0.00 0.00 100 1017.5
20260505180547 89 165 3.5 6.1 0.00 0.00 0.00 100 1017.5
20260505180317 89 146 4.3 7.8 0.00 0.00 0.00 100 1017.6
20260505180047 89 146 4.3 7.8 0.00 0.00 0.00 100 1017.6
20260505175547 88 32 0.9 5.2 0.00 0.00 0.00 100 1017.7
20260505175202 87 99 5.2 8.7 0.00 0.00 0.00 100 1017.7
20260505175047 87 99 5.2 8.7 0.00 0.00 0.00 100 1017.7
20260505174811 87 61 1.7 7.8 0.00 0.00 0.00 100 1017.6
20260505174547 87 61 1.7 7.8 0.00 0.00 0.00 100 1017.6
20260505174321 86 136 5.2 7.0 0.00 0.00 0.00 100 1017.8
20260505174047 86 136 5.2 7.0 0.00 0.00 0.00 100 1017.8
20260505173547 86 98 2.6 7.0 0.00 0.00 0.00 100 1017.9
20260505173217 87 161 4.3 7.0 0.00 0.00 0.00 100 1017.9
20260505173047 87 161 4.3 7.0 0.00 0.00 0.00 100 1017.9
20260505172547 88 95 3.5 7.0 0.00 0.00 0.00 100 1018.0
20260505172147 85 175 0.9 4.3 0.00 0.00 0.00 100 1018.0
20260505172047 85 175 0.9 4.3 0.00 0.00 0.00 100 1018.0
20260505171643 86 42 0.0 4.3 0.00 0.00 0.00 100 1018.1
20260505171547 86 42 0.0 4.3 0.00 0.00 0.00 100 1018.1
20260505171203 83 85 1.7 5.2 0.00 0.00 0.00 100 1018.2
20260505171047 83 85 1.7 5.2 0.00 0.00 0.00 100 1018.2
20260505170547 83 84 2.6 7.0 0.00 0.00 0.00 100 1018.2
20260505170047 84 74 3.5 7.0 0.00 0.00 0.00 100 1018.2
20260505165754 83 59 3.5 7.0 0.00 0.00 0.00 100 1018.1
20260505165547 83 59 3.5 7.0 0.00 0.00 0.00 100 1018.1
20260505165047 83 90 3.5 6.1 0.00 0.00 0.00 100 1018.2
20260505164713 83 111 1.7 7.0 0.00 0.00 0.00 100 1018.2
20260505164547 83 111 1.7 7.0 0.00 0.00 0.00 100 1018.2
20260505164208 85 123 0.9 9.6 0.00 0.00 0.00 100 1018.3
20260505164047 85 123 0.9 9.6 0.00 0.00 0.00 100 1018.3
20260505163810 83 142 6.1 6.1 0.00 0.00 0.00 100 1018.3
20260505163547 83 142 6.1 6.1 0.00 0.00 0.00 100 1018.3
20260505163332 85 187 1.7 9.6 0.00 0.00 0.00 100 1018.3
20260505163047 85 187 1.7 9.6 0.00 0.00 0.00 100 1018.3
20260505162657 84 81 8.7 9.6 0.00 0.00 0.00 100 1018.3
20260505162547 84 81 8.7 9.6 0.00 0.00 0.00 100 1018.3
20260505162047 86 80 3.5 6.1 0.00 0.00 0.00 100 1018.2
20260505161711 85 80 6.1 7.8 0.00 0.00 0.00 100 1018.2
20260505161547 85 80 6.1 7.8 0.00 0.00 0.00 100 1018.2
20260505161047 83 153 3.5 8.7 0.00 0.00 0.00 100 1018.3
20260505160657 82 112 0.0 9.6 0.00 0.00 0.00 100 1018.4
20260505160547 82 112 0.0 9.6 0.00 0.00 0.00 100 1018.4
20260505160257 83 87 6.1 9.6 0.00 0.00 0.00 100 1018.4
20260505153135 80 112 4.3 8.7 0.00 0.00 0.00 100 1018.6
20260505153047 80 112 4.3 8.7 0.00 0.00 0.00 100 1018.6
20260505152654 80 111 5.2 7.0 0.00 0.00 0.00 100 1018.7
20260505152547 80 111 5.2 7.0 0.00 0.00 0.00 100 1018.7
20260505152047 81 164 3.5 8.7 0.00 0.00 0.00 100 1018.6
20260505151712 81 150 6.1 9.6 0.00 0.00 0.00 100 1018.6
20260505151547 81 150 6.1 9.6 0.00 0.00 0.00 100 1018.6
20260505151238 82 90 5.2 10.4 0.00 0.00 0.00 100 1018.7
20260505151047 82 90 5.2 10.4 0.00 0.00 0.00 100 1018.7
20260505150654 83 82 5.2 9.6 0.00 0.00 0.00 100 1018.7
20260505150547 83 82 5.2 9.6 0.00 0.00 0.00 100 1018.7
20260505150310 81 81 5.2 11.3 0.00 0.00 0.00 100 1018.7